Location: Coed Ely
(51.5661°N, 3.4150°W)
Time: 02:27:15
(UTC+00:00)

Cosmos 883 Rocket - Pass Details

Date: 28 January 2021
Orbit: 950 x 996 km, 83.0° (Epoch: 28 February)

Event Time Altitude Azimuth Distance (km) Brightness Sun altitude
Rises 19:36:53 0° 349° (N) 3,680 7.7 -24.8°
Reaches altitude 10° 19:39:25 10° 350° (N) 2,722 7.0 -25.2°
Maximum altitude 19:45:40 88° 79° (E) 969 4.3 -26.2°
Enters shadow 19:50:13 19° 171° (S) 2,089 6.1 -26.9°
